When you browse on this site, cookies collect data to enhance your experience and personalize the content and advertising you see.
Visit our Privacy Policy to learn more. By continuing to use the site, you agree to this use of cookies and data.
  • In Slovakia
  • List of Countries
  • For 7 days
  • Water Temperature
  • Satellite Maps
  • Weather Map
  • Weather Widgets
  • user-avatar
    Login

    Hourly Weather Porto Alegre

    Today, 11 December, Tuesday

    Time Temperature Precipitation Wind Pressure Humidity
    00:00 +25°C° 0 mm 2 mps 760 mmHg 64%
    01:00 +24°C° 0 mm 1 mps 759 mmHg 66%
    02:00 +24°C° 0 mm 1 mps 759 mmHg 67%
    03:00 +23°C° 0 mm 1 mps 759 mmHg 68%
    04:00 +23°C° 0 mm 1 mps 759 mmHg 69%
    05:00 +23°C° 0 mm 1 mps 759 mmHg 71%
    06:00 +23°C° 0 mm 1 mps 759 mmHg 72%
    07:00 +26°C° 0 mm 1 mps 760 mmHg 63%
    08:00 +29°C° 0 mm 1 mps 760 mmHg 55%
    09:00 +32°C° 0 mm 1 mps 760 mmHg 47%
    10:00 +34°C° 0 mm 1 mps 760 mmHg 42%
    11:00 +37°C° 0 mm 1 mps 759 mmHg 36%
    12:00 +40°C° 0 mm 1 mps 759 mmHg 31%
    13:00 +40°C° 0 mm 1 mps 758 mmHg 30%
    14:00 +40°C° 0 mm 2 mps 758 mmHg 29%
    15:00 +40°C° 0 mm 2 mps 757 mmHg 28%
    16:00 +38°C° 0 mm 2 mps 757 mmHg 34%
    17:00 +37°C° 0 mm 3 mps 756 mmHg 40%
    18:00 +35°C° 0 mm 3 mps 756 mmHg 47%
    19:00 +33°C° 0 mm 3 mps 756 mmHg 51%
    20:00 +31°C° 0 mm 3 mps 757 mmHg 56%
    21:00 +29°C° 0 mm 3 mps 757 mmHg 61%
    22:00 +29°C° 0 mm 3 mps 756 mmHg 63%
    23:00 +28°C° 0 mm 2 mps 756 mmHg 66%

    Tomorrow, 12 December, Wednesday

    Time Temperature Precipitation Wind Pressure Humidity
    00:00 +27°C° 0 mm 2 mps 756 mmHg 68%
    01:00 +27°C° 0 mm 2 mps 755 mmHg 67%
    02:00 +27°C° 0 mm 2 mps 755 mmHg 67%
    03:00 +27°C° 0 mm 2 mps 755 mmHg 66%
    04:00 +27°C° 0 mm 2 mps 756 mmHg 65%
    05:00 +27°C° 0 mm 3 mps 756 mmHg 65%
    06:00 +28°C° 0 mm 3 mps 756 mmHg 64%
    07:00 +29°C° 0.1 mm 3 mps 756 mmHg 62%
    08:00 +30°C° 0.1 mm 4 mps 757 mmHg 60%
    09:00 +32°C° 0.1 mm 4 mps 757 mmHg 58%
    10:00 +33°C° 0 mm 4 mps 757 mmHg 52%
    11:00 +35°C° 0 mm 5 mps 757 mmHg 47%
    12:00 +37°C° 0 mm 5 mps 757 mmHg 41%
    13:00 +37°C° 0 mm 5 mps 757 mmHg 41%
    14:00 +37°C° 0 mm 5 mps 756 mmHg 41%
    15:00 +37°C° 0 mm 5 mps 756 mmHg 41%
    16:00 +36°C° 0 mm 4 mps 756 mmHg 45%
    17:00 +35°C° 0 mm 3 mps 756 mmHg 50%
    18:00 +34°C° 0 mm 2 mps 756 mmHg 55%
    19:00 +32°C° 0 mm 2 mps 756 mmHg 60%
    20:00 +30°C° 0 mm 2 mps 757 mmHg 65%
    21:00 +29°C° 0 mm 2 mps 757 mmHg 71%
    22:00 +28°C° 0 mm 2 mps 757 mmHg 75%
    23:00 +27°C° 0 mm 2 mps 757 mmHg 80%

    Day after tomorrow, 13 December, Thursday

    Time Temperature Precipitation Wind Pressure Humidity
    00:00 +26°C° 0 mm 2 mps 757 mmHg 84%
    01:00 +26°C° 0 mm 2 mps 757 mmHg 86%
    02:00 +25°C° 0 mm 2 mps 757 mmHg 88%
    03:00 +25°C° 0 mm 1 mps 757 mmHg 90%
    04:00 +25°C° 0.1 mm 1 mps 757 mmHg 90%
    05:00 +25°C° 0.1 mm 2 mps 757 mmHg 91%
    06:00 +25°C° 0.1 mm 2 mps 757 mmHg 91%
    07:00 +26°C° 0.9 mm 2 mps 757 mmHg 87%
    08:00 +27°C° 0.9 mm 2 mps 757 mmHg 83%
    09:00 +28°C° 0.9 mm 2 mps 758 mmHg 79%
    10:00 +30°C° 0.2 mm 2 mps 757 mmHg 74%
    11:00 +31°C° 0.2 mm 2 mps 757 mmHg 68%
    12:00 +33°C° 0.2 mm 3 mps 757 mmHg 63%
    13:00 +33°C° 0.1 mm 3 mps 756 mmHg 63%
    14:00 +33°C° 0.1 mm 4 mps 756 mmHg 64%
    15:00 +33°C° 0.1 mm 4 mps 755 mmHg 65%
    16:00 +32°C° 0.3 mm 4 mps 755 mmHg 69%
    17:00 +29°C° 0.3 mm 4 mps 755 mmHg 74%
    18:00 +28°C° 0.3 mm 4 mps 755 mmHg 79%
    19:00 +28°C° 0.2 mm 4 mps 755 mmHg 81%
    20:00 +27°C° 0.2 mm 4 mps 755 mmHg 84%
    21:00 +26°C° 0.2 mm 3 mps 756 mmHg 87%
    22:00 +26°C° 0.1 mm 4 mps 755 mmHg 88%
    23:00 +26°C° 0.1 mm 4 mps 755 mmHg 88%

    14 December, Friday

    Time Temperature Precipitation Wind Pressure Humidity
    00:00 +25°C° 0.1 mm 4 mps 755 mmHg 89%
    01:00 +25°C° 0.2 mm 3 mps 755 mmHg 89%
    02:00 +25°C° 0.2 mm 3 mps 754 mmHg 88%
    03:00 +25°C° 0.2 mm 3 mps 754 mmHg 88%
    04:00 +25°C° 0 mm 3 mps 754 mmHg 87%
    05:00 +25°C° 0 mm 2 mps 754 mmHg 86%
    06:00 +26°C° 0 mm 2 mps 754 mmHg 85%
    07:00 +27°C° 0 mm 2 mps 754 mmHg 78%
    08:00 +29°C° 0 mm 2 mps 755 mmHg 71%
    09:00 +30°C° 0 mm 2 mps 755 mmHg 64%
    10:00 +33°C° 0 mm 3 mps 755 mmHg 55%
    11:00 +36°C° 0 mm 4 mps 755 mmHg 46%
    12:00 +38°C° 0 mm 4 mps 755 mmHg 37%
    13:00 +40°C° 0 mm 4 mps 754 mmHg 35%
    14:00 +39°C° 0 mm 3 mps 754 mmHg 33%
    15:00 +40°C° 0 mm 3 mps 754 mmHg 31%
    16:00 +39°C° 0 mm 2 mps 754 mmHg 36%
    17:00 +38°C° 0 mm 2 mps 754 mmHg 40%
    18:00 +35°C° 0 mm 1 mps 754 mmHg 45%
    19:00 +35°C° 0.1 mm 2 mps 754 mmHg 51%
    20:00 +32°C° 0.1 mm 2 mps 755 mmHg 57%
    21:00 +30°C° 0.1 mm 2 mps 756 mmHg 63%
    22:00 +29°C° 0.3 mm 2 mps 756 mmHg 69%
    23:00 +28°C° 0.3 mm 2 mps 756 mmHg 74%

    15 December, Saturday

    Time Temperature Precipitation Wind Pressure Humidity
    00:00 +27°C° 0.3 mm 1 mps 755 mmHg 80%
    01:00 +27°C° 0.3 mm 1 mps 755 mmHg 81%
    02:00 +27°C° 0.3 mm 1 mps 755 mmHg 83%
    03:00 +26°C° 0.3 mm 1 mps 755 mmHg 84%
    04:00 +26°C° 0.4 mm 1 mps 755 mmHg 85%
    05:00 +26°C° 0.4 mm 1 mps 755 mmHg 87%
    06:00 +26°C° 0.4 mm 1 mps 756 mmHg 88%
    07:00 +27°C° 0.2 mm 2 mps 756 mmHg 84%
    08:00 +28°C° 0.2 mm 2 mps 757 mmHg 80%
    09:00 +29°C° 0.2 mm 3 mps 757 mmHg 77%
    10:00 +30°C° 0 mm 3 mps 757 mmHg 71%
    11:00 +32°C° 0 mm 4 mps 757 mmHg 66%
    12:00 +33°C° 0 mm 4 mps 757 mmHg 61%
    13:00 +34°C° 0 mm 4 mps 757 mmHg 59%
    14:00 +34°C° 0 mm 3 mps 757 mmHg 58%
    15:00 +34°C° 0 mm 2 mps 756 mmHg 56%
    16:00 +32°C° 0.1 mm 2 mps 756 mmHg 61%
    17:00 +31°C° 0.1 mm 2 mps 757 mmHg 66%
    18:00 +30°C° 0.1 mm 2 mps 757 mmHg 71%
    19:00 +29°C° 0.3 mm 2 mps 757 mmHg 77%
    20:00 +28°C° 0.3 mm 3 mps 758 mmHg 82%
    21:00 +27°C° 0.3 mm 3 mps 758 mmHg 88%
    22:00 +26°C° 0 mm 3 mps 758 mmHg 88%
    23:00 +26°C° 0 mm 2 mps 758 mmHg 89%

    16 December, Sunday

    Time Temperature Precipitation Wind Pressure Humidity
    00:00 +25°C° 0 mm 2 mps 758 mmHg 90%
    01:00 +25°C° 0 mm 2 mps 758 mmHg 91%
    02:00 +25°C° 0 mm 2 mps 758 mmHg 91%
    03:00 +24°C° 0 mm 2 mps 757 mmHg 92%
    04:00 +24°C° 0.3 mm 2 mps 758 mmHg 93%
    05:00 +24°C° 0.3 mm 1 mps 758 mmHg 93%
    06:00 +24°C° 0.3 mm 1 mps 758 mmHg 94%
    07:00 +25°C° 0.8 mm 1 mps 758 mmHg 92%
    08:00 +26°C° 0.8 mm 2 mps 759 mmHg 91%
    09:00 +26°C° 0.8 mm 2 mps 759 mmHg 89%
    10:00 +27°C° 0.2 mm 2 mps 758 mmHg 85%
    11:00 +29°C° 0.2 mm 2 mps 758 mmHg 80%
    12:00 +30°C° 0.2 mm 2 mps 757 mmHg 75%
    13:00 +29°C° 0.5 mm 2 mps 757 mmHg 78%
    14:00 +29°C° 0.5 mm 2 mps 757 mmHg 80%
    15:00 +28°C° 0.5 mm 3 mps 756 mmHg 83%
    16:00 +28°C° 0.6 mm 2 mps 756 mmHg 86%
    17:00 +27°C° 0.6 mm 2 mps 756 mmHg 89%
    18:00 +27°C° 0.6 mm 2 mps 756 mmHg 92%
    19:00 +26°C° 0.2 mm 2 mps 756 mmHg 93%
    20:00 +26°C° 0.2 mm 2 mps 755 mmHg 93%
    21:00 +25°C° 0.2 mm 2 mps 755 mmHg 94%
    22:00 +25°C° 0 mm 2 mps 755 mmHg 94%
    23:00 +25°C° 0 mm 2 mps 754 mmHg 94%
    Show more